Location: Chèvreville
(49.1099°N, 2.8495°E)
Time: 14:59:30
(UTC+00:00)

BlueWalker 3 - Pass Details

Date: 25 January 2026
Orbit: 451 x 461 km, 53.2° (Epoch: 16 February)

Event Time Altitude Azimuth Distance (km) Brightness Sun altitude
Rises 19:48:30 0° 276° (W) 2,457 6.6 -31.6°
Reaches altitude 10° 19:50:43 10° 283° (WNW) 1,584 5.3 -31.9°
Enters shadow 19:51:15 13° 286° (WNW) 1,385 4.9 -32.0°
